North Bend, OR

10:59 AM PDT on May 22, 2017 (GMT -0700)
North Bend Municipal

Weather History for KOTH - October, 2013

Change the Weather History Date:

Friday, October 4, 2013

  Actual Average Record
Temperature  
Mean Temperature 56 °F 55 °F  
Max Temperature 70 °F 63 °F 91 °F (1907)
Min Temperature 41 °F 47 °F 29 °F (1916)
Degree Days  
Heating Degree Days 9 10  
Month to date heating degree days 34 40  
Since 1 July heating degree days 320 648  
Cooling Degree Days 0 0  
Month to date cooling degree days 0 0  
Year to date cooling degree days 13 2  
Growing Degree Days 5 (Base 50)    
Moisture  
Dew Point 48 °F    
Average Humidity 84    
Maximum Humidity 100    
Minimum Humidity 42    
Precipitation  
Precipitation 0.00 in 0.09 in 1.22 in (1939)
Month to date precipitation 0.30 0.34  
Year to date precipitation 24.18 39.16  
Sea Level Pressure  
Sea Level Pressure 30.34 in    
Wind  
Wind Speed 5 mph (North)    
Max Wind Speed 17 mph    
Max Gust Speed -    
Visibility 10 miles    
Events      
T = Trace of Precipitation, MM = Missing Value Source: NWS Daily Summary

Daily Weather History Graph

Daily Weather History Graph

Search for Another Location

Airport or City:

Trip Planner

Search our weather history database for the weather conditions in past years. The results will help you decide how hot, cold, wet, or windy it might be!

Date:

Astronomy

Oct. 04, 2013 Rise Set
Actual Time 7:18 AM PDT 6:52 PM PDT
Civil Twilight 6:49 AM PDT 7:20 PM PDT
Nautical Twilight 6:16 AM PDT 7:53 PM PDT
Astronomical Twilight 5:43 AM PDT 8:26 PM PDT
Moon 7:00 AM PDT (10/4) 6:36 PM PDT (10/4)
Length of Visible Light 12h 30m
Length of Day
11h 33m
Waning Crescent, 0% of the Moon is Illuminated
Oct 4
Waning Crescent
Oct 4
New
Oct 11
First Quarter
Oct 18
Full
Oct 26
Last Quarter

Hourly Weather History & Observations

Time (PDT) Temp. Windchill Dew Point Humidity Pressure Visibility Wind Dir Wind Speed Gust Speed Precip Events Conditions
12:15 AM 46.4 °F - 46.4 °F 100% 30.39 in 10.0 mi Calm Calm - N/A   Clear
12:35 AM 46.4 °F - 44.6 °F 93% 30.39 in 10.0 mi Calm Calm - N/A   Clear
12:55 AM 46.4 °F 44.3 °F 46.4 °F 100% 30.38 in 10.0 mi SE 4.6 mph - N/A   Clear
1:15 AM 46.4 °F - 46.4 °F 100% 30.38 in 10.0 mi Calm Calm - N/A   Clear
1:35 AM 46.4 °F - 46.4 °F 100% 30.39 in 10.0 mi Calm Calm - N/A   Clear
1:55 AM 46.4 °F 45.2 °F 46.4 °F 100% 30.39 in 10.0 mi NNE 3.5 mph - N/A   Clear
2:15 AM 46.4 °F - 46.4 °F 100% 30.40 in 10.0 mi Calm Calm - N/A   Clear
2:35 AM 46.4 °F - 44.6 °F 93% 30.39 in 10.0 mi Calm Calm - N/A   Clear
2:55 AM 44.6 °F - 44.6 °F 100% 30.39 in 10.0 mi Calm Calm - N/A   Clear
3:15 AM 44.6 °F - 44.6 °F 100% 30.39 in 10.0 mi Calm Calm - N/A   Clear
3:35 AM 44.6 °F - 44.6 °F 100% 30.38 in 7.0 mi Calm Calm - N/A   Clear
3:55 AM 42.8 °F - 42.8 °F 100% 30.37 in 10.0 mi Calm Calm - N/A   Clear
4:15 AM 42.8 °F - 42.8 °F 100% 30.37 in 10.0 mi Calm Calm - N/A   Clear
4:35 AM 42.8 °F 41.1 °F 42.8 °F 100% 30.37 in 10.0 mi South 3.5 mph - N/A   Clear
4:55 AM 44.6 °F - 44.6 °F 100% 30.37 in 10.0 mi Calm Calm - N/A   Clear
5:15 AM 44.6 °F 41.4 °F 44.6 °F 100% 30.37 in 10.0 mi NE 5.8 mph - N/A   Clear
5:35 AM 44.6 °F 43.1 °F 42.8 °F 93% 30.37 in 10.0 mi NE 3.5 mph - N/A   Clear
5:55 AM 44.6 °F - 42.8 °F 93% 30.37 in 10.0 mi Calm Calm - N/A   Clear
6:15 AM 44.6 °F 42.2 °F 42.8 °F 93% 30.37 in 10.0 mi North 4.6 mph - N/A   Clear
6:35 AM 44.6 °F - 44.6 °F 100% 30.38 in 10.0 mi Calm Calm - N/A   Clear
6:55 AM 44.6 °F - 42.8 °F 93% 30.37 in 10.0 mi Calm Calm - N/A   Clear
7:15 AM 42.8 °F - 42.8 °F 100% 30.37 in 10.0 mi Calm Calm - N/A   Clear
7:35 AM 42.8 °F - 42.8 °F 100% 30.37 in 10.0 mi Calm Calm - N/A   Clear
7:55 AM 44.6 °F - 44.6 °F 100% 30.37 in 10.0 mi Calm Calm - N/A   Clear
8:15 AM 44.6 °F - 42.8 °F 93% 30.37 in 10.0 mi Calm Calm - N/A   Clear
8:35 AM 46.4 °F - 44.6 °F 93% 30.37 in 10.0 mi Calm Calm - N/A   Clear
8:55 AM 48.2 °F - 48.2 °F 100% 30.38 in 10.0 mi Calm Calm - N/A   Clear
9:15 AM 51.8 °F - 48.2 °F 88% 30.38 in 10.0 mi Calm Calm - N/A   Clear
9:35 AM 53.6 °F - 48.2 °F 82% 30.38 in 10.0 mi Calm Calm - N/A   Clear
9:55 AM 55.4 °F - 48.2 °F 77% 30.38 in 10.0 mi North 4.6 mph - N/A   Clear
10:15 AM 55.4 °F - 48.2 °F 77% 30.39 in 10.0 mi North 3.5 mph - N/A   Clear
10:35 AM 57.2 °F - 46.4 °F 67% 30.38 in 10.0 mi NNW 3.5 mph - N/A   Clear
10:55 AM 57.2 °F - 46.4 °F 67% 30.38 in 10.0 mi NNE 3.5 mph - N/A   Clear
11:15 AM 59.0 °F - 48.2 °F 67% 30.38 in 10.0 mi North 3.5 mph - N/A   Clear
11:35 AM 60.8 °F - 46.4 °F 59% 30.38 in 10.0 mi NNE 4.6 mph - N/A   Clear
11:55 AM 64.4 °F - 44.6 °F 49% 30.37 in 10.0 mi NE 5.8 mph - N/A   Clear
12:15 PM 66.2 °F - 44.6 °F 46% 30.35 in 10.0 mi East 9.2 mph - N/A   Clear
12:35 PM 66.2 °F - 44.6 °F 46% 30.36 in 10.0 mi NE 5.8 mph - N/A   Clear
12:55 PM 66.2 °F - 42.8 °F 43% 30.35 in 10.0 mi NNE 4.6 mph - N/A   Clear
1:15 PM 66.2 °F - 48.2 °F 52% 30.35 in 10.0 mi North 5.8 mph - N/A   Clear
1:35 PM 66.2 °F - 48.2 °F 52% 30.34 in 10.0 mi North 5.8 mph - N/A   Clear
1:55 PM 68.0 °F - 46.4 °F 46% 30.33 in 10.0 mi North 3.5 mph - N/A   Clear
2:15 PM 68.0 °F - 48.2 °F 49% 30.33 in 10.0 mi NNW 12.7 mph - N/A   Clear
2:35 PM 66.2 °F - 50.0 °F 56% 30.32 in 10.0 mi North 12.7 mph - N/A   Clear
2:55 PM 64.4 °F - 51.8 °F 64% 30.32 in 10.0 mi North 16.1 mph - N/A   Clear
3:15 PM 64.4 °F - 51.8 °F 64% 30.32 in 10.0 mi North 15.0 mph - N/A   Clear
3:35 PM 64.4 °F - 51.8 °F 64% 30.31 in 10.0 mi North 16.1 mph - N/A   Clear
3:55 PM 64.4 °F - 53.6 °F 68% 30.31 in 10.0 mi North 13.8 mph - N/A   Clear
4:15 PM 64.4 °F - 53.6 °F 68% 30.30 in 10.0 mi North 12.7 mph - N/A   Clear
4:35 PM 62.6 °F - 53.6 °F 72% 30.30 in 10.0 mi North 17.3 mph - N/A   Clear
4:55 PM 62.6 °F - 53.6 °F 72% 30.30 in 10.0 mi North 17.3 mph - N/A   Clear
5:15 PM 62.6 °F - 53.6 °F 72% 30.30 in 10.0 mi North 19.6 mph - N/A   Clear
5:35 PM 62.6 °F - 53.6 °F 72% 30.30 in 10.0 mi North 19.6 mph - N/A   Clear
5:55 PM 62.6 °F - 51.8 °F 68% 30.30 in 10.0 mi North 13.8 mph - N/A   Clear
6:15 PM 60.8 °F - 53.6 °F 77% 30.30 in 10.0 mi North 10.4 mph - N/A   Clear
6:35 PM 59.0 °F - 53.6 °F 82% 30.29 in 10.0 mi North 9.2 mph - N/A   Clear
6:55 PM 57.2 °F - 53.6 °F 88% 30.30 in 10.0 mi North 9.2 mph - N/A   Clear
7:15 PM 57.2 °F - 53.6 °F 88% 30.30 in 10.0 mi North 9.2 mph - N/A   Clear
7:35 PM 57.2 °F - 53.6 °F 88% 30.30 in 10.0 mi North 4.6 mph - N/A   Clear
7:55 PM 55.4 °F - 53.6 °F 94% 30.30 in 10.0 mi North 8.1 mph - N/A   Clear
8:15 PM 55.4 °F - 53.6 °F 94% 30.30 in 10.0 mi North 8.1 mph - N/A   Clear
8:35 PM 55.4 °F - 53.6 °F 94% 30.30 in 10.0 mi NNE 4.6 mph - N/A   Clear
8:55 PM 53.6 °F - 51.8 °F 94% 30.30 in 10.0 mi North 3.5 mph - N/A   Clear
9:15 PM 53.6 °F - 51.8 °F 94% 30.30 in 10.0 mi NE 3.5 mph - N/A   Clear
9:35 PM 53.6 °F - 51.8 °F 94% 30.30 in 10.0 mi Calm Calm - N/A   Clear
9:55 PM 51.8 °F - 51.8 °F 100% 30.30 in 10.0 mi NNE 3.5 mph - N/A   Clear
10:15 PM 51.8 °F - 51.8 °F 100% 30.30 in 10.0 mi North 4.6 mph - N/A   Clear
10:35 PM 51.8 °F - 50.0 °F 94% 30.30 in 10.0 mi Calm Calm - N/A   Clear
10:55 PM 51.8 °F - 50.0 °F 94% 30.29 in 2.5 mi Calm Calm - N/A   Partly Cloudy
11:15 PM 48.2 °F - 48.2 °F 100% 30.29 in 10.0 mi Calm Calm - N/A   Clear
11:35 PM 48.2 °F - 48.2 °F 100% 30.29 in 10.0 mi Calm Calm - N/A   Clear
11:55 PM 50.0 °F - 50.0 °F 100% 30.29 in 10.0 mi NNE 4.6 mph - N/A   Clear